GLO1023 SBRJ-SBSP

Flight info

Callsign GLO1023
Flight time N/A
Altitude 34000
Route NAXOP UZ45 IBDAL
Aircraft B737/M-SDE2E3FGHIRWXY/LB1

Departure

Time N/A
Airport Santos Dumont Airport (SBRJ)

Arrival

Time 2026-05-04 16:45
Airport Congonhas–Deputado Freitas Nobre Airport (SBSP)
Time Latitude Longitude Altitude Speed Heading
2026-05-04 16:18 -23.55753 -44.34246 34182 ft 387 kts 257°
2026-05-04 16:18 -23.56398 -44.37069 34187 ft 391 kts 257°
2026-05-04 16:19 -23.59703 -44.51573 34181 ft 395 kts 257°
2026-05-04 16:20 -23.63000 -44.66111 34173 ft 394 kts 256°
2026-05-04 16:22 -23.66260 -44.80549 34179 ft 390 kts 257°
2026-05-04 16:23 -23.70126 -44.97761 34186 ft 391 kts 256°
2026-05-04 16:25 -23.73999 -45.15103 33543 ft 397 kts 256°
2026-05-04 16:26 -23.76161 -45.26732 30935 ft 390 kts 263°
2026-05-04 16:26 -23.76834 -45.35446 29087 ft 380 kts 263°
2026-05-04 16:27 -23.77279 -45.41127 27937 ft 371 kts 263°
2026-05-04 16:28 -23.77943 -45.49408 26305 ft 360 kts 263°
2026-05-04 16:28 -23.78601 -45.57523 24657 ft 356 kts 263°
2026-05-04 16:29 -23.79459 -45.68233 22347 ft 350 kts 263°
2026-05-04 16:30 -23.80084 -45.76076 20718 ft 342 kts 263°
2026-05-04 16:31 -23.80492 -45.81231 19665 ft 338 kts 264°
2026-05-04 16:31 -23.81091 -45.88829 18045 ft 335 kts 264°
2026-05-04 16:32 -23.81679 -45.96356 16407 ft 327 kts 264°
2026-05-04 16:33 -23.82062 -46.01272 15371 ft 323 kts 264°
2026-05-04 16:33 -23.82437 -46.06128 14305 ft 320 kts 264°
2026-05-04 16:34 -23.82810 -46.10960 13193 ft 318 kts 264°
2026-05-04 16:34 -23.82996 -46.13358 12646 ft 316 kts 264°
2026-05-04 16:35 -23.83543 -46.20492 11018 ft 312 kts 265°
2026-05-04 16:35 -23.84063 -46.27326 10254 ft 283 kts 265°
2026-05-04 16:36 -23.84221 -46.29407 10009 ft 276 kts 265°
2026-05-04 16:36 -23.84535 -46.33552 9230 ft 272 kts 266°
2026-05-04 16:37 -23.84841 -46.37622 8292 ft 270 kts 267°
2026-05-04 16:37 -23.84994 -46.39643 7871 ft 264 kts 267°
2026-05-04 16:37 -23.85289 -46.43600 7152 ft 259 kts 269°
2026-05-04 16:38 -23.84164 -46.47006 6693 ft 233 kts 310°
2026-05-04 16:39 -23.81167 -46.50780 6363 ft 203 kts 310°
2026-05-04 16:39 -23.79460 -46.52962 6177 ft 174 kts 310°
2026-05-04 16:40 -23.77994 -46.54835 5874 ft 157 kts 315°
2026-05-04 16:40 -23.76219 -46.56205 5532 ft 152 kts 325°
2026-05-04 16:41 -23.74519 -46.57405 5149 ft 142 kts 326°
2026-05-04 16:41 -23.71987 -46.59164 4595 ft 138 kts 327°
2026-05-04 16:42 -23.69641 -46.60796 4079 ft 132 kts 327°
2026-05-04 16:43 -23.68102 -46.61868 3739 ft 132 kts 328°
2026-05-04 16:43 -23.66526 -46.62966 3377 ft 138 kts 327°
2026-05-04 16:43 -23.65720 -46.63523 3198 ft 137 kts 327°
2026-05-04 16:44 -23.62601 -46.65693 2604 ft 95 kts 328°
2026-05-04 16:45 -23.62180 -46.65960 2593 ft 7 kts 22°
2026-05-04 16:46 -23.62143 -46.65808 2594 ft 7 kts 83°
2026-05-04 16:46 -23.62192 -46.65722 2597 ft 7 kts 147°
2026-05-04 16:47 -23.62293 -46.65652 2598 ft 12 kts 148°
2026-05-04 16:47 -23.62491 -46.65514 2592 ft 20 kts 147°
2026-05-04 16:48 -23.62789 -46.65326 2588 ft 11 kts 190°
2026-05-04 16:48 -23.62841 -46.65382 2599 ft 11 kts 237°
2026-05-04 16:49 -23.62917 -46.65516 2605 ft 12 kts 238°
2026-05-04 16:49 -23.62831 -46.65641 2602 ft 12 kts 328°
2026-05-04 16:50 -23.62695 -46.65735 2601 ft 11 kts 328°
2026-05-04 16:50 -23.62603 -46.65798 2601 ft 1 kts 327°
2026-05-04 16:51 -23.62592 -46.65808 2601 ft 1 kts 316°
2026-05-04 16:51 -23.62587 -46.65830 2600 ft 4 kts 255°
2026-05-04 16:51 -23.62622 -46.65877 2600 ft 1 kts 237°
2026-05-04 16:52 -23.62625 -46.65882 2600 ft 1 kts 236°
2026-05-04 16:52 -23.62628 -46.65887 2599 ft 0 kts 236°